Location: Asheville, NC
(35.6000°N, 82.5500°W)
Time: 00:01:03
(UTC-04:00)

KAITUO 1B - Pass Details

Date: 13 February 2018
Orbit: 498 x 521 km, 97.5° (Epoch: 21 May)

Event Time Altitude Azimuth Distance (km) Brightness Sun altitude
Rises 06:31:45 0° 16° (NNE) 2,597 ? -10.2°
Reaches altitude 10° 06:33:52 10° 21° (NNE) 1,712 ? -9.8°
Maximum altitude 06:37:30 54° 100° (E) 613 ? -9.1°
Drops below altitude 10° 06:41:07 10° 179° (S) 1,713 ? -8.3°
Sets 06:43:13 0° 183° (S) 2,598 ? -7.9°
